Weather History for EINN - November, 2013

Change the Weather History Date:

Sunday, November 3, 2013

  Actual Average Record
Temperature  
Mean Temperature 44 °F -  
Max Temperature 49 °F 51 °F 60 °F (2011)
Min Temperature 39 °F 40 °F 30 °F (2006)
Degree Days  
Heating Degree Days 21    
Moisture  
Dew Point 41 °F    
Average Humidity 85    
Maximum Humidity 100    
Minimum Humidity 71    
Precipitation  
Precipitation 0.08 in 0.13 in - ()
Sea Level Pressure  
Sea Level Pressure 29.43 in    
Wind  
Wind Speed 11 mph ()    
Max Wind Speed 25 mph    
Max Gust Speed 38 mph    
Visibility 6.4 miles    
Events Rain    
Averages and records for this station are not official NWS values.
T = Trace of Precipitation, MM = Missing Value Source: Averaged Metar Reports

Daily Weather History Graph

Daily Weather History Graph

Search for Another Location

Airport or City:

Trip Planner

Search our weather history database for the weather conditions in past years. The results will help you decide how hot, cold, wet, or windy it might be!

Date:

Astronomy

Nov. 03, 2013 Rise Set
Actual Time 7:36 AM GMT 5:01 PM GMT
Civil Twilight 6:59 AM GMT 5:37 PM GMT
Nautical Twilight 6:19 AM GMT 6:18 PM GMT
Astronomical Twilight 5:39 AM GMT 6:58 PM GMT
Moon 7:25 AM GMT (11/3) 5:02 PM GMT (11/3)
Length of Visible Light 10h 38m
Length of Day
9h 24m
Waning Crescent, 0% of the Moon is Illuminated
Nov 3
Waning Crescent
Nov 3
New
Nov 10
First Quarter
Nov 17
Full
Nov 25
Last Quarter

Hourly Weather History & Observations

Time (GMT) Temp. Windchill Dew Point Humidity Pressure Visibility Wind Dir Wind Speed Gust Speed Precip Events Conditions
12:00 AM 44 °F - 41 °F 87% 29.51 in 12 mi West 6.7 mph - - Rain Light Rain Showers
12:00 AM 44.6 °F 41.4 °F 41.0 °F 87% 29.50 in 6.2 mi West 5.8 mph - N/A Rain Light Rain Showers
12:30 AM 42.8 °F 34.5 °F 41.0 °F 93% 29.50 in 5.0 mi WNW 18.4 mph 32.2 mph N/A Rain Light Rain Showers
1:00 AM 44.6 °F 37.8 °F 41.0 °F 87% 29.50 in 6.2 mi West 15.0 mph - N/A   Mostly Cloudy
1:30 AM 44.6 °F 36.9 °F 41.0 °F 87% 29.50 in 6.2 mi WSW 18.4 mph - N/A   Scattered Clouds
2:00 AM 46.4 °F 39.8 °F 41.0 °F 81% 29.50 in 6.2 mi WSW 16.1 mph - N/A   Mostly Cloudy
3:00 AM 46.4 °F 41.1 °F 42.8 °F 87% 29.50 in 6.2 mi WSW 11.5 mph - N/A   Mostly Cloudy
3:30 AM 46.4 °F 39.2 °F 42.8 °F 87% 29.53 in 6.2 mi WSW 18.4 mph - N/A   Mostly Cloudy
4:00 AM 46.4 °F 39.5 °F 41.0 °F 81% 29.53 in 6.2 mi WSW 17.3 mph - N/A   Mostly Cloudy
4:30 AM 46.4 °F 39.5 °F 41.0 °F 81% 29.53 in 6.2 mi WSW 17.3 mph - N/A Rain Light Rain Showers
5:00 AM 48.2 °F - 39.2 °F 71% 29.53 in 6.2 mi WSW 21.9 mph - N/A   Scattered Clouds
5:30 AM 44.6 °F 35.5 °F 39.2 °F 81% 29.53 in 3.7 mi WSW 25.3 mph 38.0 mph N/A Rain Light Rain Showers
6:00 AM 44 °F - 40 °F 81% 29.56 in 6 mi West 15.7 mph - - Rain Light Rain Showers
6:00 AM 44.6 °F 37.4 °F 41.0 °F 87% 29.53 in 6.2 mi West 16.1 mph - N/A Rain Light Rain Showers
6:30 AM 46.4 °F 40.4 °F 42.8 °F 87% 29.56 in 6.2 mi WSW 13.8 mph - N/A   Partly Cloudy
7:00 AM 46.4 °F 39.0 °F 42.8 °F 87% 29.56 in 6.2 mi WSW 19.6 mph - N/A Rain Light Rain Showers
7:30 AM 44.6 °F 38.4 °F 41.0 °F 87% 29.53 in 6.2 mi SW 12.7 mph - N/A   Scattered Clouds
8:00 AM 44.6 °F 38.1 °F 41.0 °F 87% 29.56 in 6.2 mi West 13.8 mph - N/A   Mostly Cloudy
8:30 AM 46.4 °F 39.8 °F 41.0 °F 81% 29.56 in 6.2 mi WSW 16.1 mph - N/A Rain Light Rain Showers
9:00 AM 44.6 °F 37.4 °F 41.0 °F 87% 29.56 in 6.2 mi SW 16.1 mph - N/A   Scattered Clouds
9:30 AM 48.2 °F - 42.8 °F 82% 29.56 in 6.2 mi SW 15.0 mph - N/A   Scattered Clouds
10:00 AM 48.2 °F - 41.0 °F 76% 29.56 in 6.2 mi WSW 13.8 mph - N/A   Scattered Clouds
10:30 AM 46.4 °F 40.4 °F 42.8 °F 87% 29.53 in 6.2 mi SSW 13.8 mph - N/A   Scattered Clouds
11:00 AM 46.4 °F 41.1 °F 42.8 °F 87% 29.53 in 6.2 mi SSW 11.5 mph - N/A   Mostly Cloudy
11:30 AM 48.2 °F - 42.8 °F 82% 29.50 in 6.2 mi SSW 9.2 mph - N/A   Mostly Cloudy
12:00 PM 47 °F - 42 °F 78% 29.52 in 25 mi South 8.9 mph - -   Partly Cloudy
12:00 PM 48.2 °F - 42.8 °F 82% 29.50 in 6.2 mi South 9.2 mph - N/A   Mostly Cloudy
12:30 PM 48.2 °F - 42.8 °F 82% 29.47 in 6.2 mi SE 8.1 mph - N/A   Mostly Cloudy
1:00 PM 48.2 °F - 42.8 °F 82% 29.44 in 6.2 mi ESE 9.2 mph - N/A   Mostly Cloudy
1:30 PM 48.2 °F - 44.6 °F 87% 29.42 in 6.2 mi ESE 10.4 mph - N/A   Mostly Cloudy
2:00 PM 48.2 °F - 42.8 °F 82% 29.39 in 6.2 mi ESE 10.4 mph - N/A   Mostly Cloudy
2:30 PM 48.2 °F - 42.8 °F 82% 29.36 in 6.2 mi ESE 8.1 mph - N/A   Mostly Cloudy
3:00 PM 48.2 °F - 42.8 °F 82% 29.36 in 6.2 mi East 8.1 mph - N/A   Mostly Cloudy
3:30 PM 48.2 °F - 42.8 °F 82% 29.33 in 6.2 mi East 8.1 mph - N/A   Mostly Cloudy
4:00 PM 48.2 °F - 42.8 °F 82% 29.30 in 6.2 mi ENE 9.2 mph - N/A   Mostly Cloudy
4:30 PM 46.4 °F 42.4 °F 42.8 °F 87% 29.30 in 6.2 mi ENE 8.1 mph - N/A   Mostly Cloudy
5:00 PM 46.4 °F 42.9 °F 41.0 °F 81% 29.30 in 6.2 mi ENE 6.9 mph - N/A   Mostly Cloudy
5:30 PM 46.4 °F 42.9 °F 41.0 °F 81% 29.27 in 6.2 mi NE 6.9 mph - N/A   Mostly Cloudy
6:00 PM 46 °F - 41 °F 77% 29.28 in 12 mi NE 8.9 mph - - Rain Light Rain
6:00 PM 46.4 °F 41.9 °F 41.0 °F 81% 29.27 in 6.2 mi NE 9.2 mph - N/A Rain Light Rain
6:30 PM 46.4 °F 42.4 °F 41.0 °F 81% 29.27 in 6.2 mi NE 8.1 mph - N/A Rain Light Rain
7:00 PM 44.6 °F 40.2 °F 41.0 °F 87% 29.27 in 6.2 mi NNE 8.1 mph - N/A   Mostly Cloudy
7:30 PM 44.6 °F 40.7 °F 41.0 °F 87% 29.27 in 6.2 mi NNE 6.9 mph - N/A   Mostly Cloudy
8:00 PM 44.6 °F 40.7 °F 42.8 °F 93% 29.27 in 6.2 mi North 6.9 mph - N/A   Mostly Cloudy
8:30 PM 44.6 °F 40.2 °F 41.0 °F 87% 29.27 in 6.2 mi North 8.1 mph - N/A   Mostly Cloudy
9:00 PM 42.8 °F 40.1 °F 41.0 °F 93% 29.27 in 6.2 mi NNE 4.6 mph - N/A   Mostly Cloudy
9:30 PM 42.8 °F 40.1 °F 39.2 °F 87% 29.30 in 6.2 mi NNE 4.6 mph - N/A   Mostly Cloudy
10:00 PM 41.0 °F 37.1 °F 39.2 °F 93% 29.30 in 6.2 mi NNW 5.8 mph - N/A   Mostly Cloudy
10:30 PM 41.0 °F 36.4 °F 39.2 °F 93% 29.30 in 6.2 mi North 6.9 mph - N/A   Mostly Cloudy
11:00 PM 39.2 °F 35.0 °F 39.2 °F 100% 29.33 in 6.2 mi NNW 5.8 mph - N/A   Mostly Cloudy
11:30 PM 39.2 °F 33.6 °F 39.2 °F 100% 29.33 in 6.2 mi NNW 8.1 mph - N/A   Mostly Cloudy